CYVQ

Norman Wells Airport

Airport
ICAO code
CYVQ
Summary
ICAO Region
NAM
ICAO Territory
Location

Norman Wells, Northwest Territories,

Coordinates
65° 16' 55" N , 126° 48' 6" W
KCC
Airport BS
Non Avian Wildlife Hazards to Aircraft
Airport CFIT
Altimeter Temperature Error Correction
Airport GND
Aircraft Ground De/Anti Icing
Airport RE
Landing on Contaminated Runways
Metar
Observation
CYVQ 211400Z 12009KT 30SM FEW180 M10/M14 A2973 RMK AC1 AC TR SLP075
Station
Norman Wells, N. W. T.
Date/Time
2023-03-21 14:00:00
Wind direction
120°
Wind speed
09 kts
Lowest cloud amount
few clouds
Temperature
-10°C
Dew point
-14°C
Humidity
72%
Weather condition
n/a

Description

Norman Wells Airport is a regional airport located in Norman Wells, Northwest Territories, Canada.

Climatology

Subarctic climate (Köppen climate classification Dfc) - long, usually very cold winters, and short, cool to mild summers.

Runways

Designator Length Width Surface Rops
9/27 1828 46 ASP No/No

Airport map

Aerial View

SKYbrary Partners:

Safety knowledge contributed by: